Location: Friaudour
(46.0460°N, 1.2873°E)
Time: 06:57:29
(UTC+00:00)

Cosmos 1441 Rocket - Pass Details

Date: 14 July 2020
Orbit: 495 x 541 km, 81.1° (Epoch: 14 August)

Event Time Altitude Azimuth Distance (km) Brightness Sun altitude
Exits shadow 00:10:20 80° 108° (ESE) 552 3.1 -22.3°
Maximum altitude 00:10:21 80° 101° (E) 552 3.2 -22.3°
Drops below altitude 10° 00:14:19 10° 13° (NNE) 1,798 7.0 -22.2°
Sets 00:16:28 0° 12° (NNE) 2,687 8.3 -22.2°
